Previsão horária em Barnowo

Hoje, 23 Julho, Sexta-feira

Tempo Temperatura Precipitação Vento Pressão Humidade
00:00 +13°C° 0 mm 1 m/s 753 mmHg 89%
01:00 +13°C° 0 mm 1 m/s 753 mmHg 91%
02:00 +13°C° 0 mm 1 m/s 753 mmHg 91%
03:00 +13°C° 0 mm 1 m/s 753 mmHg 92%
04:00 +13°C° 0 mm 1 m/s 753 mmHg 93%
05:00 +15°C° 0 mm 2 m/s 753 mmHg 85%
06:00 +17°C° 0 mm 2 m/s 752 mmHg 77%
07:00 +19°C° 0 mm 2 m/s 752 mmHg 69%
08:00 +20°C° 0 mm 2 m/s 752 mmHg 62%
09:00 +23°C° 0 mm 2 m/s 752 mmHg 55%
10:00 +24°C° 0 mm 3 m/s 752 mmHg 48%
11:00 +25°C° 0 mm 3 m/s 752 mmHg 45%
12:00 +26°C° 0 mm 3 m/s 752 mmHg 42%
13:00 +26°C° 0 mm 3 m/s 752 mmHg 40%
14:00 +26°C° 0 mm 3 m/s 752 mmHg 41%
15:00 +26°C° 0 mm 3 m/s 752 mmHg 42%
16:00 +26°C° 0 mm 3 m/s 751 mmHg 43%
17:00 +24°C° 0 mm 3 m/s 752 mmHg 49%
18:00 +22°C° 0 mm 3 m/s 752 mmHg 56%
19:00 +20°C° 0 mm 3 m/s 752 mmHg 62%
20:00 +19°C° 0 mm 2 m/s 752 mmHg 69%
21:00 +18°C° 0 mm 1 m/s 752 mmHg 76%
22:00 +15°C° 0 mm 1 m/s 752 mmHg 83%
23:00 +15°C° 0 mm 1 m/s 752 mmHg 83%

Amanhã, 24 Julho, Sábado

Tempo Temperatura Precipitação Vento Pressão Humidade
00:00 +15°C° 0 mm 1 m/s 752 mmHg 84%
01:00 +15°C° 0 mm 1 m/s 752 mmHg 84%
02:00 +15°C° 0 mm 1 m/s 752 mmHg 84%
03:00 +15°C° 0 mm 1 m/s 752 mmHg 85%
04:00 +14°C° 0 mm 1 m/s 752 mmHg 85%
05:00 +16°C° 0 mm 1 m/s 752 mmHg 77%
06:00 +20°C° 0 mm 1 m/s 752 mmHg 69%
07:00 +21°C° 0 mm 2 m/s 752 mmHg 61%
08:00 +23°C° 0 mm 1 m/s 752 mmHg 55%
09:00 +25°C° 0 mm 1 m/s 752 mmHg 48%
10:00 +27°C° 0 mm 1 m/s 752 mmHg 42%
11:00 +27°C° 0 mm 2 m/s 752 mmHg 42%
12:00 +27°C° 0 mm 2 m/s 752 mmHg 43%
13:00 +27°C° 0 mm 3 m/s 751 mmHg 43%
14:00 +26°C° 0 mm 2 m/s 751 mmHg 46%
15:00 +26°C° 0 mm 2 m/s 751 mmHg 49%
16:00 +25°C° 0 mm 2 m/s 751 mmHg 52%
17:00 +25°C° 0 mm 3 m/s 751 mmHg 55%
18:00 +24°C° 0 mm 3 m/s 751 mmHg 58%
19:00 +22°C° 0 mm 3 m/s 751 mmHg 61%
20:00 +21°C° 0 mm 3 m/s 751 mmHg 65%
21:00 +20°C° 0 mm 3 m/s 752 mmHg 70%
22:00 +19°C° 0 mm 3 m/s 752 mmHg 75%
23:00 +19°C° 0 mm 3 m/s 752 mmHg 72%

Depois de amanhã, 25 Julho, Domingo

Tempo Temperatura Precipitação Vento Pressão Humidade
00:00 +19°C° 0 mm 3 m/s 752 mmHg 70%
01:00 +19°C° 0 mm 3 m/s 751 mmHg 68%
02:00 +19°C° 0 mm 3 m/s 751 mmHg 69%
03:00 +19°C° 0 mm 2 m/s 751 mmHg 70%
04:00 +19°C° 0 mm 2 m/s 751 mmHg 71%
05:00 +19°C° 0 mm 3 m/s 751 mmHg 70%
06:00 +20°C° 0 mm 3 m/s 751 mmHg 68%
07:00 +21°C° 0 mm 3 m/s 751 mmHg 66%
08:00 +23°C° 0 mm 4 m/s 751 mmHg 57%
09:00 +26°C° 0 mm 4 m/s 751 mmHg 48%
10:00 +28°C° 0 mm 4 m/s 751 mmHg 38%
11:00 +29°C° 0 mm 4 m/s 750 mmHg 36%
12:00 +30°C° 0 mm 5 m/s 750 mmHg 34%
13:00 +32°C° 0 mm 5 m/s 750 mmHg 32%
14:00 +30°C° 0 mm 5 m/s 750 mmHg 35%
15:00 +29°C° 0 mm 5 m/s 750 mmHg 39%
16:00 +29°C° 0 mm 5 m/s 750 mmHg 42%
17:00 +27°C° 0.2 mm 4 m/s 750 mmHg 49%
18:00 +26°C° 0.2 mm 4 m/s 750 mmHg 56%
19:00 +23°C° 0.2 mm 4 m/s 750 mmHg 62%
20:00 +22°C° 0.7 mm 3 m/s 750 mmHg 71%
21:00 +21°C° 0.7 mm 2 m/s 750 mmHg 79%
22:00 +21°C° 0.7 mm 1 m/s 751 mmHg 88%
23:00 +21°C° 0.2 mm 1 m/s 750 mmHg 88%

26 Julho, Segunda-feira

Tempo Temperatura Precipitação Vento Pressão Humidade
00:00 +20°C° 0.2 mm 1 m/s 750 mmHg 89%
01:00 +20°C° 0.2 mm 1 m/s 750 mmHg 89%
02:00 +20°C° 0.2 mm 1 m/s 750 mmHg 90%
03:00 +18°C° 0.2 mm 2 m/s 750 mmHg 91%
04:00 +18°C° 0.2 mm 2 m/s 749 mmHg 92%
05:00 +19°C° 0.1 mm 2 m/s 749 mmHg 90%
06:00 +19°C° 0.1 mm 3 m/s 749 mmHg 89%
07:00 +20°C° 0.1 mm 3 m/s 749 mmHg 87%
08:00 +21°C° 0 mm 3 m/s 749 mmHg 82%
09:00 +22°C° 0 mm 3 m/s 749 mmHg 77%
10:00 +23°C° 0 mm 4 m/s 749 mmHg 72%
11:00 +25°C° 0 mm 4 m/s 749 mmHg 65%
12:00 +26°C° 0 mm 4 m/s 749 mmHg 58%
13:00 +28°C° 0 mm 4 m/s 749 mmHg 52%
14:00 +28°C° 0 mm 3 m/s 749 mmHg 53%
15:00 +28°C° 0 mm 2 m/s 749 mmHg 53%
16:00 +28°C° 0 mm 2 m/s 748 mmHg 54%
17:00 +27°C° 0 mm 2 m/s 748 mmHg 59%
18:00 +26°C° 0 mm 1 m/s 748 mmHg 64%
19:00 +25°C° 0 mm 1 m/s 748 mmHg 68%
20:00 +24°C° 0 mm 1 m/s 748 mmHg 71%
21:00 +23°C° 0 mm 1 m/s 748 mmHg 75%
22:00 +22°C° 0 mm 1 m/s 748 mmHg 78%
23:00 +21°C° 0 mm 1 m/s 748 mmHg 83%

27 Julho, Terça-feira

Tempo Temperatura Precipitação Vento Pressão Humidade
00:00 +21°C° 0 mm 1 m/s 748 mmHg 88%
01:00 +20°C° 0 mm 1 m/s 748 mmHg 93%
02:00 +20°C° 0 mm 1 m/s 748 mmHg 92%
03:00 +20°C° 0 mm 1 m/s 748 mmHg 91%
04:00 +19°C° 0 mm 2 m/s 749 mmHg 90%
05:00 +20°C° 0 mm 2 m/s 749 mmHg 82%
06:00 +23°C° 0 mm 2 m/s 749 mmHg 73%
07:00 +24°C° 0 mm 2 m/s 749 mmHg 65%
08:00 +25°C° 0 mm 2 m/s 749 mmHg 59%
09:00 +27°C° 0 mm 2 m/s 749 mmHg 53%
10:00 +28°C° 0 mm 2 m/s 749 mmHg 47%
11:00 +29°C° 0 mm 3 m/s 749 mmHg 45%
12:00 +29°C° 0 mm 3 m/s 749 mmHg 43%
13:00 +30°C° 0 mm 3 m/s 749 mmHg 41%
14:00 +29°C° 0 mm 3 m/s 749 mmHg 44%
15:00 +29°C° 0 mm 3 m/s 749 mmHg 47%
16:00 +28°C° 0 mm 4 m/s 749 mmHg 50%
17:00 +26°C° 0 mm 3 m/s 749 mmHg 55%
18:00 +25°C° 0 mm 2 m/s 749 mmHg 61%
19:00 +23°C° 0 mm 2 m/s 749 mmHg 66%
20:00 +22°C° 0 mm 1 m/s 749 mmHg 68%
21:00 +22°C° 0 mm 1 m/s 749 mmHg 71%
22:00 +21°C° 0 mm 1 m/s 749 mmHg 73%
23:00 +21°C° 0 mm 1 m/s 749 mmHg 73%

28 Julho, Quarta-feira

Tempo Temperatura Precipitação Vento Pressão Humidade
00:00 +21°C° 0 mm 1 m/s 749 mmHg 72%
01:00 +19°C° 0 mm 0 m/s 748 mmHg 72%
02:00 +21°C° 0 mm 1 m/s 748 mmHg 73%
03:00 +20°C° 0 mm 1 m/s 748 mmHg 74%
04:00 +20°C° 0 mm 1 m/s 748 mmHg 75%
05:00 +21°C° 0 mm 1 m/s 748 mmHg 72%
06:00 +22°C° 0 mm 1 m/s 748 mmHg 70%
07:00 +23°C° 0 mm 1 m/s 748 mmHg 67%
08:00 +23°C° 0.5 mm 2 m/s 748 mmHg 69%
09:00 +22°C° 0.5 mm 3 m/s 747 mmHg 70%
10:00 +22°C° 0.5 mm 3 m/s 747 mmHg 72%
11:00 +21°C° 0.3 mm 3 m/s 747 mmHg 75%
12:00 +21°C° 0.3 mm 3 m/s 748 mmHg 79%
13:00 +20°C° 0.3 mm 3 m/s 748 mmHg 83%
14:00 +21°C° 0.4 mm 4 m/s 747 mmHg 80%
15:00 +22°C° 0.4 mm 5 m/s 747 mmHg 77%
16:00 +22°C° 0.4 mm 5 m/s 747 mmHg 74%
17:00 +21°C° 0.7 mm 5 m/s 747 mmHg 78%
18:00 +20°C° 0.7 mm 4 m/s 748 mmHg 82%
19:00 +19°C° 0.7 mm 3 m/s 748 mmHg 86%
20:00 +19°C° 0.2 mm 3 m/s 748 mmHg 88%
21:00 +18°C° 0.2 mm 3 m/s 748 mmHg 91%
22:00 +17°C° 0.2 mm 3 m/s 748 mmHg 93%
23:00 +17°C° 0 mm 4 m/s 748 mmHg 93%
Mostrar mais